TAR130 LMML-DTTA

Flight info

Callsign TAR130
Flight time 0h 50m
Altitude 24000
Route GZO M978 SONAK
Aircraft A20N/M-SDE2E3FGHIRWXY/LB1

Departure

Time 2026-04-28 19:41
Airport Malta International Airport (LMML)

Arrival

Time 2026-04-28 20:32
Airport Tunis Carthage International Airport (DTTA)
Time Latitude Longitude Altitude Speed Heading
2026-04-28 18:56 35.85504 14.48408 263 ft 0 kts
2026-04-28 19:34 35.85490 14.48407 263 ft 2 kts
2026-04-28 19:34 35.85473 14.48406 264 ft 2 kts
2026-04-28 19:35 35.85457 14.48404 264 ft 2 kts
2026-04-28 19:35 35.85445 14.48406 264 ft 1 kts 324°
2026-04-28 19:35 35.85444 14.48406 264 ft 0 kts 324°
2026-04-28 19:36 35.85447 14.48404 264 ft 2 kts 323°
2026-04-28 19:36 35.85461 14.48388 264 ft 3 kts 314°
2026-04-28 19:36 35.85474 14.48372 264 ft 2 kts 314°
2026-04-28 19:36 35.85488 14.48354 264 ft 6 kts 314°
2026-04-28 19:37 35.85510 14.48257 264 ft 15 kts 266°
2026-04-28 19:37 35.85526 14.48217 264 ft 9 kts 318°
2026-04-28 19:37 35.85635 14.48205 264 ft 8 kts
2026-04-28 19:37 35.85664 14.48197 264 ft 3 kts 339°
2026-04-28 19:38 35.85668 14.48187 264 ft 0 kts 285°
2026-04-28 19:38 35.85668 14.48185 264 ft 1 kts 282°
2026-04-28 19:38 35.85663 14.48133 265 ft 9 kts 267°
2026-04-28 19:38 35.85662 14.48097 265 ft 0 kts 269°
2026-04-28 19:39 35.85666 14.48004 266 ft 13 kts 281°
2026-04-28 19:39 35.85624 14.47929 267 ft 11 kts 181°
2026-04-28 19:40 35.85594 14.47950 266 ft 0 kts 132°
2026-04-28 19:40 35.85587 14.47959 266 ft 15 kts 131°
2026-04-28 19:41 35.85344 14.48259 264 ft 83 kts 134°
2026-04-28 19:41 35.84801 14.48940 261 ft 139 kts 134°
2026-04-28 19:41 35.84104 14.49854 624 ft 152 kts 128°
2026-04-28 19:41 35.83627 14.51102 921 ft 172 kts 108°
2026-04-28 19:42 35.82898 14.52330 1335 ft 196 kts 148°
2026-04-28 19:42 35.81513 14.52562 1985 ft 216 kts 192°
2026-04-28 19:42 35.80039 14.51882 2482 ft 242 kts 204°
2026-04-28 19:42 35.79079 14.51060 2873 ft 257 kts 224°
2026-04-28 19:43 35.78215 14.48331 3907 ft 270 kts 272°
2026-04-28 19:43 35.78823 14.46175 4853 ft 269 kts 308°
2026-04-28 19:43 35.80216 14.44671 5828 ft 267 kts 324°
2026-04-28 19:43 35.81763 14.43386 6717 ft 269 kts 325°
2026-04-28 19:44 35.83291 14.42074 7542 ft 271 kts 323°
2026-04-28 19:44 35.84805 14.40671 8401 ft 274 kts 321°
2026-04-28 19:44 35.86302 14.39197 9325 ft 276 kts 320°
2026-04-28 19:44 35.87792 14.37676 10244 ft 279 kts 319°
2026-04-28 19:45 35.89322 14.36083 10714 ft 299 kts 318°
2026-04-28 19:45 35.90968 14.34355 11044 ft 321 kts 318°
2026-04-28 19:45 35.92693 14.32544 11562 ft 335 kts 318°
2026-04-28 19:45 35.94483 14.30662 12355 ft 340 kts 317°
2026-04-28 19:46 35.96294 14.28752 13202 ft 344 kts 317°
2026-04-28 19:46 35.98118 14.26820 14004 ft 347 kts 317°
2026-04-28 19:46 35.99957 14.24865 14720 ft 351 kts 317°
2026-04-28 19:46 36.01799 14.22871 15421 ft 354 kts 314°
2026-04-28 19:47 36.03394 14.20540 16146 ft 355 kts 301°
2026-04-28 19:47 36.04469 14.17788 16831 ft 357 kts 290°
2026-04-28 19:47 36.05243 14.14901 17516 ft 360 kts 285°
2026-04-28 19:47 36.05901 14.11897 18207 ft 364 kts 283°
2026-04-28 19:48 36.06515 14.08840 18805 ft 368 kts 283°
2026-04-28 19:48 36.07129 14.05758 19396 ft 371 kts 283°
2026-04-28 19:48 36.07765 14.02650 19985 ft 374 kts 283°
2026-04-28 19:48 36.08428 13.99529 20573 ft 376 kts 284°
2026-04-28 19:49 36.09118 13.96380 21150 ft 379 kts 284°
2026-04-28 19:49 36.09818 13.93262 21722 ft 382 kts 284°
2026-04-28 19:49 36.10540 13.90092 22277 ft 385 kts 285°
2026-04-28 19:49 36.11272 13.86901 22836 ft 387 kts 285°
2026-04-28 19:50 36.12761 13.80438 23850 ft 393 kts 285°
2026-04-28 19:50 36.13509 13.77183 24031 ft 395 kts 284°
2026-04-28 19:50 36.14263 13.73894 24056 ft 398 kts 284°
2026-04-28 19:51 36.15018 13.70594 24059 ft 399 kts 284°
2026-04-28 19:51 36.15771 13.67290 24060 ft 399 kts 284°
2026-04-28 19:51 36.16512 13.64034 24058 ft 398 kts 284°
2026-04-28 19:51 36.17263 13.60729 24057 ft 398 kts 284°
2026-04-28 19:52 36.18012 13.57426 24058 ft 398 kts 284°
2026-04-28 19:52 36.18761 13.54123 24058 ft 398 kts 284°
2026-04-28 19:52 36.19509 13.50821 24057 ft 398 kts 284°
2026-04-28 19:52 36.20257 13.47509 24056 ft 398 kts 284°
2026-04-28 19:53 36.21004 13.44198 24053 ft 398 kts 284°
2026-04-28 19:53 36.21750 13.40888 24054 ft 398 kts 284°
2026-04-28 19:53 36.22485 13.37623 24050 ft 398 kts 284°
2026-04-28 19:53 36.23227 13.34321 24051 ft 398 kts 284°
2026-04-28 19:54 36.23967 13.31022 24049 ft 397 kts 284°
2026-04-28 19:54 36.24706 13.27720 24049 ft 397 kts 284°
2026-04-28 19:54 36.25445 13.24416 24048 ft 397 kts 284°
2026-04-28 19:54 36.26183 13.21114 24049 ft 397 kts 284°
2026-04-28 19:55 36.26921 13.17807 24047 ft 397 kts 284°
2026-04-28 19:55 36.27655 13.14509 24048 ft 397 kts 284°
2026-04-28 19:55 36.28381 13.11248 24048 ft 397 kts 284°
2026-04-28 19:55 36.29113 13.07947 24047 ft 397 kts 284°
2026-04-28 19:56 36.29846 13.04642 24044 ft 397 kts 284°
2026-04-28 19:56 36.30577 13.01336 24044 ft 397 kts 284°
2026-04-28 19:56 36.31305 12.98041 24041 ft 397 kts 284°
2026-04-28 19:56 36.32033 12.94743 24044 ft 396 kts 284°
2026-04-28 19:57 36.32760 12.91445 24043 ft 396 kts 284°
2026-04-28 19:57 36.33486 12.88148 24043 ft 396 kts 284°
2026-04-28 19:57 36.34209 12.84856 24047 ft 396 kts 284°
2026-04-28 19:57 36.34935 12.81551 24046 ft 396 kts 284°
2026-04-28 19:58 36.35649 12.78295 24044 ft 396 kts 284°
2026-04-28 19:58 36.36371 12.74994 24046 ft 396 kts 284°
2026-04-28 19:58 36.37094 12.71688 24041 ft 396 kts 284°
2026-04-28 19:58 36.37817 12.68377 24042 ft 396 kts 284°
2026-04-28 19:59 36.38535 12.65082 24046 ft 396 kts 284°
2026-04-28 19:59 36.39255 12.61776 24042 ft 396 kts 284°
2026-04-28 19:59 36.39972 12.58475 24042 ft 396 kts 284°
2026-04-28 19:59 36.40689 12.55172 24042 ft 396 kts 284°
2026-04-28 20:00 36.41405 12.51873 24041 ft 396 kts 284°
2026-04-28 20:00 36.42120 12.48566 24041 ft 396 kts 284°
2026-04-28 20:00 36.42828 12.45293 24041 ft 396 kts 284°
2026-04-28 20:00 36.43541 12.41991 24040 ft 396 kts 284°
2026-04-28 20:01 36.44253 12.38684 24039 ft 396 kts 284°
2026-04-28 20:01 36.44966 12.35375 24042 ft 396 kts 284°
2026-04-28 20:01 36.45677 12.32067 24042 ft 396 kts 284°
2026-04-28 20:01 36.46389 12.28748 24040 ft 397 kts 284°
2026-04-28 20:02 36.47092 12.25469 24038 ft 397 kts 284°
2026-04-28 20:02 36.47801 12.22152 24040 ft 397 kts 284°
2026-04-28 20:02 36.48509 12.18839 24038 ft 397 kts 283°
2026-04-28 20:02 36.49217 12.15521 24041 ft 397 kts 283°
2026-04-28 20:03 36.49918 12.12206 24034 ft 397 kts 283°
2026-04-28 20:03 36.50598 12.08871 24035 ft 397 kts 283°
2026-04-28 20:03 36.51258 12.05547 24034 ft 393 kts 282°
2026-04-28 20:03 36.51901 12.02255 24035 ft 389 kts 282°
2026-04-28 20:04 36.52533 11.98990 24029 ft 388 kts 282°
2026-04-28 20:04 36.53162 11.95726 24031 ft 388 kts 282°
2026-04-28 20:04 36.53790 11.92459 24032 ft 388 kts 282°
2026-04-28 20:04 36.54417 11.89192 24033 ft 388 kts 282°
2026-04-28 20:05 36.54832 11.87029 24037 ft 389 kts 282°
2026-04-28 20:05 36.55621 11.82674 24035 ft 392 kts 279°
2026-04-28 20:05 36.56076 11.79303 24025 ft 393 kts 278°
2026-04-28 20:05 36.56521 11.75946 24028 ft 395 kts 278°
2026-04-28 20:06 36.56813 11.73702 24029 ft 397 kts 278°
2026-04-28 20:06 36.57247 11.70301 24031 ft 398 kts 278°
2026-04-28 20:06 36.57671 11.66910 23754 ft 392 kts 278°
2026-04-28 20:06 36.58082 11.63575 23219 ft 387 kts 277°
2026-04-28 20:07 36.58483 11.60271 22592 ft 383 kts 277°
2026-04-28 20:07 36.58744 11.58101 22155 ft 382 kts 277°
2026-04-28 20:07 36.59264 11.53735 21277 ft 379 kts 278°
2026-04-28 20:07 36.59642 11.50540 20649 ft 377 kts 278°
2026-04-28 20:08 36.60021 11.47319 20025 ft 375 kts 278°
2026-04-28 20:08 36.60396 11.44113 19395 ft 373 kts 278°
2026-04-28 20:08 36.60769 11.40925 18791 ft 371 kts 278°
2026-04-28 20:08 36.61139 11.37746 18178 ft 370 kts 278°
2026-04-28 20:09 36.61506 11.34580 17511 ft 368 kts 278°
2026-04-28 20:09 36.61871 11.31447 16912 ft 364 kts 278°
2026-04-28 20:09 36.62232 11.28344 16322 ft 360 kts 278°
2026-04-28 20:09 36.62591 11.25269 15735 ft 357 kts 278°
2026-04-28 20:10 36.62947 11.22221 15155 ft 354 kts 278°
2026-04-28 20:10 36.63300 11.19199 14591 ft 351 kts 278°
2026-04-28 20:10 36.63646 11.16238 14035 ft 348 kts 278°
2026-04-28 20:10 36.63992 11.13264 13429 ft 346 kts 278°
2026-04-28 20:11 36.64335 11.10308 12787 ft 344 kts 278°
2026-04-28 20:11 36.64676 11.07370 12149 ft 342 kts 278°
2026-04-28 20:11 36.65013 11.04460 11769 ft 333 kts 277°
2026-04-28 20:11 36.65338 11.01652 11571 ft 320 kts 277°
2026-04-28 20:12 36.65647 10.98964 11392 ft 307 kts 277°
2026-04-28 20:12 36.65943 10.96384 11218 ft 295 kts 277°
2026-04-28 20:12 36.66229 10.93885 10939 ft 288 kts 277°
2026-04-28 20:12 36.66506 10.91453 10560 ft 286 kts 277°
2026-04-28 20:13 36.66745 10.89003 10155 ft 284 kts 273°
2026-04-28 20:13 36.66582 10.86568 9695 ft 283 kts 251°
2026-04-28 20:13 36.65606 10.84464 9221 ft 282 kts 229°
2026-04-28 20:13 36.64239 10.82726 8793 ft 280 kts 223°
2026-04-28 20:14 36.62814 10.81075 8370 ft 278 kts 222°
2026-04-28 20:14 36.61399 10.79445 8084 ft 275 kts 222°
2026-04-28 20:14 36.59997 10.77816 8030 ft 276 kts 224°
2026-04-28 20:14 36.58906 10.75871 8025 ft 277 kts 248°
2026-04-28 20:15 36.58629 10.73542 8031 ft 280 kts 274°
2026-04-28 20:15 36.59220 10.71241 8037 ft 283 kts 296°
2026-04-28 20:15 36.60100 10.69035 8028 ft 284 kts 291°
2026-04-28 20:15 36.60805 10.66744 8026 ft 284 kts 287°
2026-04-28 20:16 36.61418 10.64410 8027 ft 283 kts 285°
2026-04-28 20:16 36.61978 10.62053 8025 ft 283 kts 284°
2026-04-28 20:16 36.62517 10.59732 8022 ft 283 kts 284°
2026-04-28 20:16 36.63073 10.57385 8023 ft 283 kts 287°
2026-04-28 20:17 36.63785 10.55132 8024 ft 284 kts 292°
2026-04-28 20:17 36.64609 10.52897 8022 ft 284 kts 293°
2026-04-28 20:17 36.65449 10.50672 8017 ft 284 kts 293°
2026-04-28 20:17 36.66296 10.48439 8014 ft 284 kts 293°
2026-04-28 20:18 36.67137 10.46220 8014 ft 283 kts 293°
2026-04-28 20:18 36.67770 10.44792 8005 ft 285 kts 304°
2026-04-28 20:18 36.69877 10.42831 8009 ft 288 kts 340°
2026-04-28 20:18 36.71841 10.42557 8009 ft 291 kts
2026-04-28 20:19 36.73740 10.43386 8010 ft 292 kts 32°
2026-04-28 20:19 36.75340 10.44943 8006 ft 293 kts 42°
2026-04-28 20:19 36.76842 10.46677 8005 ft 294 kts 44°
2026-04-28 20:19 36.78254 10.48526 8001 ft 294 kts 57°
2026-04-28 20:20 36.79022 10.50852 8014 ft 290 kts 81°
2026-04-28 20:20 36.79423 10.53330 8006 ft 292 kts 72°
2026-04-28 20:20 36.80453 10.55497 8011 ft 292 kts 46°
2026-04-28 20:20 36.82059 10.56849 8011 ft 274 kts 19°
2026-04-28 20:21 36.83869 10.57335 8019 ft 260 kts
2026-04-28 20:21 36.85666 10.57538 8013 ft 258 kts
2026-04-28 20:21 36.87469 10.57617 8014 ft 259 kts 358°
2026-04-28 20:21 36.89229 10.57376 8010 ft 257 kts 340°
2026-04-28 20:22 36.90759 10.56299 8017 ft 252 kts 318°
2026-04-28 20:22 36.92272 10.54560 8010 ft 252 kts 313°
2026-04-28 20:22 36.93520 10.53009 8008 ft 253 kts 313°
2026-04-28 20:22 36.94762 10.51453 8005 ft 253 kts 313°
2026-04-28 20:23 36.96004 10.49899 8007 ft 252 kts 313°
2026-04-28 20:23 36.97245 10.48349 7889 ft 252 kts 313°
2026-04-28 20:23 36.98491 10.46797 7538 ft 252 kts 313°
2026-04-28 20:23 36.99733 10.45249 7208 ft 252 kts 313°
2026-04-28 20:24 37.00975 10.43704 6873 ft 251 kts 313°
2026-04-28 20:24 37.02217 10.42160 6529 ft 251 kts 313°
2026-04-28 20:24 37.03428 10.40658 6342 ft 244 kts 313°
2026-04-28 20:24 37.04612 10.39197 6216 ft 234 kts 313°
2026-04-28 20:25 37.05749 10.37800 6086 ft 225 kts 313°
2026-04-28 20:25 37.06727 10.36323 5826 ft 218 kts 294°
2026-04-28 20:25 37.07273 10.34616 5680 ft 205 kts 284°
2026-04-28 20:25 37.07681 10.32936 5419 ft 199 kts 281°
2026-04-28 20:26 37.07663 10.31250 5041 ft 193 kts 245°
2026-04-28 20:26 37.06858 10.29985 4685 ft 187 kts 212°
2026-04-28 20:26 37.05729 10.29192 4344 ft 186 kts 204°
2026-04-28 20:26 37.04563 10.28507 4028 ft 185 kts 203°
2026-04-28 20:27 37.03382 10.27831 3645 ft 187 kts 199°
2026-04-28 20:27 37.02559 10.27510 3436 ft 186 kts 193°
2026-04-28 20:27 37.00949 10.27031 3222 ft 169 kts 191°
2026-04-28 20:27 36.99855 10.26726 3031 ft 154 kts 191°
2026-04-28 20:28 36.98838 10.26441 2727 ft 146 kts 191°
2026-04-28 20:28 36.97854 10.26163 2315 ft 145 kts 190°
2026-04-28 20:28 36.97209 10.25984 2111 ft 140 kts 190°
2026-04-28 20:28 36.96274 10.25734 1924 ft 137 kts 189°
2026-04-28 20:29 36.95336 10.25480 1754 ft 138 kts 189°
2026-04-28 20:29 36.94097 10.25141 1506 ft 138 kts 189°
2026-04-28 20:29 36.93466 10.24969 1382 ft 137 kts 189°
2026-04-28 20:29 36.92535 10.24716 1197 ft 137 kts 189°
2026-04-28 20:30 36.91618 10.24467 1020 ft 136 kts 189°
2026-04-28 20:30 36.90684 10.24214 838 ft 135 kts 189°
2026-04-28 20:30 36.89778 10.23967 664 ft 135 kts 189°
2026-04-28 20:30 36.88862 10.23718 485 ft 134 kts 188°
2026-04-28 20:31 36.87950 10.23471 315 ft 134 kts 189°
2026-04-28 20:31 36.87043 10.23225 132 ft 131 kts 191°
2026-04-28 20:31 36.86166 10.22976 34 ft 117 kts 190°
2026-04-28 20:31 36.85539 10.22815 34 ft 72 kts 192°
2026-04-28 20:32 36.85087 10.22693 38 ft 62 kts 194°
2026-04-28 20:32 36.84712 10.22591 33 ft 34 kts 192°
2026-04-28 20:32 36.84640 10.22565 32 ft 8 kts 202°
2026-04-28 20:32 36.84590 10.22534 31 ft 8 kts 211°
2026-04-28 20:33 36.84547 10.22494 32 ft 7 kts 219°
2026-04-28 20:33 36.84514 10.22454 32 ft 6 kts 229°
2026-04-28 20:33 36.84495 10.22416 33 ft 5 kts 244°
2026-04-28 20:33 36.84486 10.22381 33 ft 4 kts 258°
2026-04-28 20:34 36.84481 10.22297 33 ft 16 kts 273°
2026-04-28 20:34 36.84499 10.22167 32 ft 11 kts 283°
2026-04-28 20:34 36.84532 10.22086 33 ft 10 kts 319°
2026-04-28 20:34 36.84554 10.22052 33 ft 3 kts 278°
2026-04-28 20:35 36.84558 10.22029 33 ft 3 kts 288°
2026-04-28 20:35 36.84565 10.22008 33 ft 3 kts 293°